RH
17 25 37 38 50 55 44 47 48 47 45 38 43 47 47 52 48 41 43 46 38 35 48 46 40 40 30 26 25 20 20 20 20 19 18 19 18 19 22 26 28 29 30 29 29 30 30 31 32 32 32 33 33 31 30 31 32 34 34 34 34 34 34 34 34 34 32 30 33 36 38 40 44 47 51 50 48 51 53 52 52 52 51 51 51 51
22 27 51 52 50 52 41 41 40 34 37 37 39 43 50 56 48 42 44 46 38 36 51 50 41 39 31 27 26 23 23 22 21 20 19 19 20 23 26 29 31 31 31 30 30 31 32 32 33 34 34 35 35 33 34 35 36 37 37 37 38 37 37 37 38 39 37 34 35 37 36 39 42 43 46 46 43 46 47 45 44 43 43 44 45 45
38 43 59 48 37 44 43 41 38 37 40 40 44 46 50 56 53 50 50 46 40 37 44 47 41 35 31 29 30 30 26 21 19 18 18 20 23 26 27 28 30 30 31 31 32 32 32 33 34 35 35 35 36 36 37 38 39 40 42 43 41 39 38 38 40 41 40 38 37 38 38 39 40 38 40 39 36 39 41 39 37 35 36 38 38 38
43 50 48 34 32 39 39 42 40 38 43 43 43 45 51 55 49 52 57 48 43 43 42 44 46 42 39 37 34 30 24 22 20 18 19 23 25 26 27 28 29 31 32 33 33 34 34 34 35 36 36 37 38 38 39 41 42 44 47 47 43 39 37 39 46 47 44 40 38 39 40 41 42 39 37 35 32 33 34 34 34 33 35 37 37 37
45 44 34 30 37 39 37 44 43 38 52 62 53 47 51 50 40 47 59 50 46 54 50 43 47 53 50 40 32 27 26 26 25 24 24 25 26 27 29 30 31 33 34 34 35 35 36 36 36 37 37 39 39 39 42 44 45 46 49 48 45 44 40 41 47 47 43 40 38 40 39 39 40 38 36 36 35 33 30 31 32 32 36 40 40 40
43 38 35 38 40 40 37 46 54 46 51 65 59 48 46 44 40 48 58 50 44 53 50 38 47 63 57 36 27 27 30 29 27 30 31 28 29 30 31 32 33 35 36 37 38 38 38 38 38 39 39 40 40 42 45 45 46 49 50 50 50 50 48 46 47 46 45 44 43 44 44 43 42 40 37 36 37 37 35 34 34 34 37 40 42 43
42 39 42 45 45 43 40 48 62 54 43 52 56 50 46 43 41 47 51 48 47 50 45 36 46 61 53 35 31 31 32 32 30 33 34 31 32 32 32 34 35 37 38 38 39 39 40 40 40 41 41 42 43 45 46 46 49 51 50 51 53 55 55 54 54 54 53 50 48 49 51 50 47 46 44 42 42 42 41 41 40 39 40 41 43 45
46 42 42 45 45 45 47 51 59 55 48 55 55 47 43 40 40 47 47 48 54 54 49 45 43 50 53 44 37 36 35 33 32 37 38 34 34 33 33 36 38 39 39 40 41 41 42 42 42 43 43 45 45 46 48 49 50 49 48 51 55 56 56 54 57 60 59 55 53 53 56 56 51 50 50 50 49 47 46 46 45 44 44 45 46 47
47 42 45 46 42 49 59 54 53 47 40 53 55 43 39 37 40 48 48 53 58 50 52 56 43 45 61 53 36 34 36 34 38 44 43 37 35 34 35 38 39 40 40 40 42 43 43 43 43 44 46 47 47 49 50 49 47 46 49 53 56 57 56 56 58 61 61 58 57 58 60 60 57 56 55 53 51 48 47 48 47 47 48 48 48 49
46 43 51 53 46 52 54 47 54 47 34 46 51 47 50 50 51 52 50 55 53 47 57 62 46 43 57 52 38 36 35 38 47 50 45 40 36 35 37 40 41 41 40 42 43 44 44 44 45 47 48 48 50 51 49 47 46 49 54 56 55 55 55 54 54 57 61 61 61 63 63 63 62 63 62 59 56 51 51 51 50 51 52 51 51 51
50 39 43 51 48 45 39 37 51 47 36 40 45 53 61 62 60 55 57 57 50 58 68 59 43 40 47 49 45 45 44 47 52 50 46 43 37 36 39 41 41 41 42 44 44 44 45 46 47 49 50 51 51 49 47 48 50 53 53 50 45 44 46 49 51 53 57 59 61 64 64 64 65 65 65 64 62 59 57 57 56 57 57 55 54 54
62 47 41 45 42 39 36 36 47 50 44 44 51 55 53 57 58 51 63 65 58 71 67 44 38 39 47 53 46 45 51 55 54 50 49 46 40 39 41 41 41 43 45 44 43 44 47 48 49 51 52 52 49 47 47 48 49 48 44 40 37 36 40 47 51 53 54 56 59 62 63 64 65 66 67 66 65 63 60 61 62 63 62 58 57 58
64 64 56 47 40 40 40 42 56 65 58 55 60 57 52 62 60 54 65 63 60 70 53 33 37 41 47 50 42 42 46 49 47 43 43 43 41 41 41 41 42 45 45 44 44 47 50 51 53 54 53 51 49 47 46 44 43 42 39 38 39 41 44 47 50 51 51 52 55 59 62 63 65 66 68 69 69 67 65 64 66 66 65 61 60 62
58 67 61 51 43 44 44 42 49 54 50 51 50 47 56 64 55 59 68 56 57 64 44 31 37 47 50 41 38 43 40 40 39 36 37 39 40 41 41 43 45 46 45 45 47 49 53 56 56 56 53 50 50 47 45 45 43 42 42 40 40 44 48 50 51 50 53 59 62 62 61 59 64 69 72 76 75 73 70 68 68 68 66 63 62 64
43 50 53 53 46 44 47 43 42 42 46 53 46 42 56 63 56 61 64 54 60 67 57 43 38 52 56 41 40 42 36 39 39 36 39 38 39 41 42 46 47 47 47 47 49 53 56 59 56 54 52 51 50 48 47 48 47 46 45 43 42 41 40 40 44 47 54 62 64 63 61 58 66 75 77 78 77 76 75 71 69 68 66 64 64 65
40 43 49 50 43 42 46 45 42 40 42 45 41 39 49 60 60 61 61 58 57 63 68 60 46 48 49 39 43 44 39 43 40 37 40 38 40 44 46 50 50 49 51 51 55 58 58 57 54 52 53 51 48 49 50 50 50 49 46 44 42 38 34 33 36 36 37 45 53 58 59 61 70 78 79 78 76 75 74 70 68 69 68 67 67 66
44 47 50 48 43 40 40 44 43 40 39 37 38 42 44 46 45 48 60 62 55 55 61 57 48 45 41 39 45 48 47 48 45 42 42 41 45 48 50 54 53 52 53 54 58 60 58 56 54 54 53 48 47 51 53 54 52 48 46 45 41 36 34 34 33 30 32 45 57 61 60 61 67 74 76 75 73 73 72 72 73 74 74 72 70 70
43 47 53 50 48 42 35 39 43 40 37 37 42 47 44 42 43 48 59 66 67 68 62 55 53 52 52 52 53 55 54 51 51 49 45 48 51 52 54 55 53 53 53 54 58 59 59 57 56 55 50 47 52 56 57 55 50 46 47 46 41 36 33 30 31 40 52 58 57 57 62 64 69 76 80 79 78 79 80 80 80 80 78 74 74 78
43 45 50 48 50 49 40 40 48 47 39 38 42 42 38 41 52 57 59 65 72 72 70 69 63 56 59 60 57 59 56 52 54 53 52 55 53 54 56 54 53 52 50 54 60 61 61 58 56 54 51 53 58 60 59 53 46 46 46 42 38 33 27 31 47 60 62 53 45 54 67 73 77 82 85 85 84 85 87 86 85 85 82 76 76 80
46 44 48 50 48 47 41 39 51 55 44 38 39 41 39 42 56 61 56 63 70 67 70 80 75 58 53 55 56 56 55 55 58 58 58 57 55 56 56 52 53 51 48 56 64 63 60 57 55 54 56 61 63 62 58 50 45 46 44 42 39 31 29 46 63 61 50 45 56 73 81 82 83 82 80 79 79 82 85 86 87 87 86 82 81 82
49 45 51 57 49 44 43 42 51 54 47 47 50 49 44 41 55 63 55 59 68 66 69 79 80 64 47 49 55 56 57 59 60 61 60 57 56 56 53 52 52 48 50 64 68 63 59 57 57 58 63 67 66 62 55 47 47 48 47 45 38 35 44 53 49 42 50 67 78 77 70 70 72 72 71 71 71 76 80 84 87 88 89 89 84 79
48 47 53 57 48 42 43 43 47 47 48 58 58 56 62 63 61 60 63 70 67 63 67 74 78 68 47 46 56 56 59 61 58 58 57 54 54 53 51 51 49 50 60 71 68 61 60 59 60 64 70 71 66 59 51 47 49 49 46 41 35 37 44 42 40 55 79 88 73 53 51 62 67 69 75 80 82 87 89 91 94 95 96 94 89 85
43 47 52 55 49 42 41 42 44 45 49 54 45 42 57 66 57 51 65 79 70 61 65 69 78 74 53 50 58 58 59 59 55 54 54 52 52 52 51 50 52 61 70 72 67 63 63 63 66 72 73 68 62 56 51 51 52 51 47 42 38 35 32 39 63 88 92 72 47 43 62 78 81 83 91 95 97 99 98 98 98 98 98 96 93 92
43 49 53 58 56 49 46 41 37 42 44 42 40 40 43 51 57 57 63 75 76 70 65 67 78 75 57 55 60 58 58 56 52 52 51 51 52 51 52 54 60 70 73 72 70 67 66 68 73 75 69 64 61 55 53 54 55 56 54 47 36 27 36 66 90 91 69 43 37 57 81 89 91 96 100 100 100 100 100 99 96 96 97 98 97 95
44 52 54 59 60 59 60 52 48 58 54 38 40 51 53 57 63 63 66 74 79 73 63 69 83 73 55 58 61 56 56 53 50 51 49 51 54 53 54 61 68 74 74 75 73 70 71 74 74 70 67 65 60 53 51 51 54 57 50 37 31 39 67 93 90 65 42 38 55 81 93 95 97 100 99 99 99 97 97 97 94 93 92 90 91 96
51 57 52 53 58 62 63 57 57 64 59 46 44 49 56 57 51 54 66 75 80 78 69 73 83 69 52 61 66 58 57 55 50 50 50 53 56 55 60 70 74 77 78 79 75 72 74 74 70 69 68 62 54 48 48 48 53 50 34 31 55 82 92 83 60 43 41 58 82 96 99 100 100 100 100 100 99 93 89 88 86 86 83 77 81 92
58 63 56 55 60 58 55 54 55 54 50 49 49 51 61 64 56 58 70 75 79 85 79 71 73 69 64 73 74 63 59 57 52 52 54 57 59 61 70 77 78 80 82 80 75 74 74 72 72 71 64 56 48 42 48 62 64 49 39 58 88 96 80 57 43 46 65 88 101 100 99 95 87 83 83 81 79 75 72 71 70 69 67 66 73 83
60 66 63 62 60 58 57 54 50 51 50 46 47 57 70 71 62 61 70 74 75 83 84 72 67 72 75 78 75 64 58 56 53 56 61 61 63 71 78 79 80 81 80 77 75 75 75 74 73 68 59 55 48 43 61 79 67 53 68 91 90 71 55 48 52 71 92 101 93 82 78 73 64 63 64 63 63 63 64 65 66 68 71 74 80 86
59 71 72 66 60 56 55 52 49 52 52 46 49 62 72 72 66 63 68 71 69 77 83 72 68 75 77 75 68 58 55 56 57 64 65 61 67 77 78 76 79 80 77 76 77 77 77 75 72 65 60 55 48 57 81 79 57 64 88 87 66 51 48 54 73 95 100 87 72 66 65 65 66 67 67 66 66 66 68 69 74 84 92 95 96 97
55 77 80 68 62 57 50 52 58 57 54 54 59 67 70 70 69 67 67 65 63 72 76 70 74 77 70 66 60 51 55 61 65 69 65 62 72 79 77 76 80 80 78 79 79 79 78 76 69 63 60 55 55 72 86 73 66 82 83 62 51 49 54 72 94 100 86 69 62 64 67 72 75 72 70 71 71 74 78 80 86 95 97 95 93 92
49 73 78 62 64 68 56 52 58 54 52 60 68 68 66 67 72 72 71 67 68 77 78 75 83 83 69 58 52 52 62 69 72 72 65 65 76 79 75 76 78 80 81 81 81 81 80 75 67 62 58 58 67 81 83 76 81 81 62 51 54 55 68 93 101 86 70 62 60 63 69 73 74 72 72 74 79 86 90 89 89 91 90 88 88 88
51 68 76 65 70 76 60 50 56 55 57 70 77 73 68 71 75 73 69 68 70 78 84 85 91 88 69 53 52 62 72 75 76 72 65 70 77 74 71 71 74 81 85 84 84 84 78 72 66 62 58 59 70 79 76 74 73 60 51 54 54 59 84 101 89 71 63 60 61 65 68 70 71 73 75 78 85 92 93 90 88 88 90 91 92 93
63 66 72 72 76 80 65 53 55 56 63 79 82 76 72 73 73 70 67 69 71 77 87 92 89 76 59 54 66 77 78 78 77 70 67 72 72 67 67 71 80 88 88 86 85 80 75 71 64 58 56 57 64 71 71 68 62 53 54 55 50 65 94 94 75 66 63 61 65 67 69 72 75 77 80 84 89 92 91 90 91 92 95 96 97 99
73 67 72 74 75 84 76 60 60 66 73 81 75 67 69 71 73 75 72 70 70 71 76 78 71 62 58 66 81 85 80 79 76 67 66 69 67 68 73 79 88 92 88 84 80 74 73 65 51 47 52 54 58 63 65 63 60 58 58 53 54 76 96 87 69 66 65 64 68 71 75 80 82 82 84 87 90 92 92 93 93 94 96 99 101 101
72 70 79 75 71 84 83 72 79 84 79 77 67 60 64 65 66 70 71 72 72 66 67 71 66 60 66 76 83 83 79 78 73 66 65 67 68 75 83 88 92 91 83 77 73 71 67 53 41 43 49 54 59 61 62 62 61 61 59 55 62 83 95 85 72 70 70 70 72 78 82 84 84 84 86 88 92 96 96 96 96 95 97 100 101 100
67 71 78 74 71 81 80 78 87 82 70 74 72 62 62 65 66 70 75 81 82 72 69 71 65 61 70 79 82 81 79 75 68 62 65 69 73 82 89 91 93 86 75 70 72 71 60 49 50 56 57 61 66 67 70 71 66 63 59 57 70 88 92 82 75 76 78 77 79 83 86 87 86 84 85 89 94 99 100 100 99 97 98 100 99 96
61 66 71 73 74 76 76 79 83 75 73 84 83 69 64 66 67 70 76 83 83 75 68 64 62 68 77 82 84 82 77 71 65 63 69 75 81 89 90 90 89 79 66 69 76 70 56 54 64 71 71 72 75 80 84 79 70 66 62 61 75 89 89 83 80 81 81 82 83 84 86 89 88 84 86 92 97 101 102 101 100 98 100 102 100 97
54 55 62 74 78 77 80 88 91 87 88 91 82 66 58 57 55 59 73 85 80 69 66 67 71 80 85 86 87 82 77 78 78 75 74 80 88 92 89 89 86 72 64 74 79 67 59 61 64 67 71 70 72 83 89 81 72 70 67 69 81 90 88 85 83 82 82 84 85 86 88 89 88 86 89 93 98 101 100 98 99 99 99 102 103 100
60 59 68 81 86 80 79 89 95 92 92 89 77 64 55 54 53 52 67 85 78 67 73 80 82 85 88 90 89 83 84 93 93 82 77 86 93 90 88 91 80 62 66 81 79 69 68 65 56 53 57 62 70 81 83 78 74 73 73 80 90 92 91 89 85 84 85 85 86 89 90 89 87 87 90 95 98 100 99 97 98 99 99 100 101 100
79 81 82 85 86 80 77 86 88 85 87 81 70 65 57 48 49 53 64 77 75 72 83 87 86 89 92 93 91 87 90 97 94 83 80 89 90 84 89 89 67 56 72 79 66 62 64 58 52 51 49 56 69 76 77 77 77 76 79 88 95 98 97 93 87 84 85 85 86 89 90 88 87 86 91 97 99 99 99 97 97 99 100 99 99 100
85 86 84 81 82 77 74 81 78 77 87 80 65 66 57 44 57 73 77 75 73 80 92 92 89 94 95 92 91 89 87 87 84 82 85 89 85 82 88 79 54 55 75 69 49 50 52 48 53 56 52 58 67 69 72 77 77 76 81 88 96 100 98 93 87 84 84 84 85 87 86 85 84 85 89 96 100 103 101 97 96 99 100 99 100 101
88 89 87 81 79 72 67 76 79 81 87 77 62 61 57 60 82 88 74 69 75 88 97 93 91 96 96 91 91 88 83 80 80 85 90 87 82 84 86 68 44 48 62 53 43 48 48 43 47 50 51 60 67 69 73 77 77 78 82 86 93 97 94 89 86 85 84 83 84 85 84 81 80 83 88 95 101 105 102 97 97 100 101 100 100 99
81 91 93 79 76 81 80 84 89 89 83 72 69 71 69 74 86 78 67 74 85 92 95 92 93 99 96 91 89 85 81 82 86 92 91 82 79 86 82 59 39 43 54 53 50 51 47 44 46 48 50 57 63 68 73 76 78 81 85 90 94 93 91 88 86 85 85 84 84 84 82 80 79 83 90 98 103 105 103 100 99 100 101 101 100 99
73 85 93 81 80 98 102 90 84 82 76 70 73 78 75 73 76 74 77 86 89 90 92 94 97 98 93 89 88 83 82 88 92 92 85 76 78 85 74 49 34 41 55 60 55 49 46 47 51 52 54 56 60 65 69 74 79 82 87 94 94 91 90 88 86 87 85 84 85 85 82 81 82 85 93 100 104 105 103 101 100 100 100 100 100 100
73 67 74 77 77 81 81 74 70 72 73 69 67 70 72 73 76 79 81 84 87 89 90 92 95 93 89 88 86 84 87 92 94 90 79 73 80 83 68 45 33 39 51 55 50 46 47 51 54 55 54 54 58 62 64 73 82 86 88 92 92 90 90 88 86 86 86 86 87 85 83 83 84 89 95 99 103 105 102 101 101 101 101 101 100 100
62 52 58 75 75 59 48 54 65 71 71 67 64 68 72 73 75 79 82 85 89 88 86 88 90 88 88 88 86 88 92 94 94 87 74 76 89 85 61 41 35 40 48 50 47 47 49 52 55 58 56 55 59 63 64 73 86 92 92 90 89 90 91 89 87 86 85 87 87 86 85 86 89 95 96 96 100 104 102 101 103 102 100 100 100 100
58 52 57 73 76 61 50 56 69 75 71 66 66 70 73 75 79 84 88 90 90 89 90 91 88 88 90 88 87 93 96 96 94 82 72 84 97 82 55 42 41 44 49 51 50 51 52 54 56 60 60 59 62 64 65 73 84 92 92 90 89 90 91 91 89 87 86 89 89 88 88 91 96 100 98 94 98 104 103 100 101 103 102 100 100 100
66 58 63 75 78 71 64 60 67 73 69 63 67 73 75 81 87 88 91 92 90 91 95 93 90 92 93 87 88 95 97 97 90 75 74 90 92 69 49 44 44 46 50 53 53 54 55 58 61 65 68 68 67 66 68 75 84 89 90 89 89 90 91 91 90 87 87 90 91 90 91 95 100 102 99 96 97 102 103 102 101 102 101 100 101 100
66 62 67 78 82 81 74 68 71 76 70 63 69 75 77 83 89 91 94 94 89 89 92 90 90 94 91 86 88 93 97 98 87 73 77 87 75 54 46 45 46 49 52 53 55 57 59 61 65 69 72 72 71 70 71 77 84 88 90 89 89 89 91 91 90 87 87 91 92 91 93 97 101 101 100 99 97 95 96 100 103 105 102 99 101 101
70 71 74 85 94 92 83 78 81 84 79 74 76 77 80 87 94 94 94 93 90 89 90 89 92 93 88 84 88 94 101 99 82 71 77 76 58 46 46 45 47 51 52 53 57 59 61 65 68 72 74 73 73 74 76 80 85 87 89 90 90 89 90 92 90 87 88 91 92 92 96 100 101 100 101 101 100 95 88 84 86 94 101 102 101 100
72 75 78 88 95 88 80 78 79 81 83 82 78 77 84 92 97 95 93 91 90 89 90 91 94 94 88 84 90 100 105 92 68 60 66 61 47 44 47 48 50 52 51 54 59 59 60 63 65 70 74 75 74 76 78 82 86 87 88 89 90 90 91 92 93 91 91 93 93 94 98 102 101 100 100 100 100 100 96 86 74 71 82 96 102 100
Wind_Speed
2 2 3 5 7 6 5 5 6 4 5 5 3 2 5 5 6 7 5 4 3 2 7 8 7 8 13 16 12 8 10 10 15 14 17 22 20 18 19 21 22 21 18 16 15 13 11 11 11 11 12 12 13 12 14 17 19 20 21 23 24 26 27 27 28 27 27 25 23 23 23 24 24 24 26 26 26 26 26 26 26 27 27 28 28 29
1 3 6 7 7 6 3 3 4 3 4 2 2 2 4 4 6 6 2 3 1 1 6 6 6 9 13 17 12 6 6 8 18 19 20 23 22 23 26 26 24 21 18 15 14 12 11 10 10 10 11 12 12 11 12 16 19 21 22 24 25 27 27 28 28 27 27 25 24 24 24 24 24 24 25 25 24 24 24 24 25 25 26 26 27 27
2 5 8 6 4 4 4 4 5 3 2 1 1 0 4 4 5 4 2 1 0 0 5 6 7 10 15 15 11 8 8 11 21 24 24 26 27 28 30 26 23 20 17 15 14 12 11 10 9 9 10 10 9 9 9 12 18 21 22 23 25 27 28 28 27 26 26 26 26 26 26 25 24 24 23 23 22 22 22 23 23 24 24 25 26 27
3 5 6 2 4 5 3 2 5 4 1 1 2 1 4 4 3 3 3 3 2 2 5 8 7 8 12 9 8 6 5 13 18 24 25 28 30 29 27 23 21 19 17 15 14 13 11 10 9 8 10 9 6 6 7 11 18 20 20 23 27 30 31 29 25 25 26 26 27 28 28 27 26 25 24 23 23 22 22 22 23 24 24 25 26 27
6 5 1 2 3 3 1 1 3 2 2 3 4 5 5 4 3 4 4 4 4 4 3 5 6 5 6 4 6 7 13 18 18 23 24 27 30 27 25 22 20 19 17 15 14 13 12 12 10 8 9 8 5 6 7 13 17 18 21 26 30 32 33 30 26 27 28 28 29 30 30 30 29 28 27 26 26 25 24 24 24 24 24 25 26 27
7 4 1 2 1 1 2 3 3 5 1 5 4 6 5 2 1 2 5 5 5 5 2 4 5 5 5 5 3 4 8 10 15 21 22 26 28 26 25 23 20 19 17 16 15 14 14 13 11 9 9 7 5 6 8 13 16 20 26 31 32 33 33 31 28 30 31 30 30 31 33 33 32 31 30 28 29 29 29 27 27 26 25 25 26 27
3 2 3 3 1 0 1 3 5 6 3 4 3 4 4 4 4 4 5 4 1 3 3 2 1 5 6 5 2 2 6 7 10 14 16 22 26 25 25 22 20 19 18 18 15 15 14 14 13 11 10 6 4 5 9 15 20 25 31 34 33 33 33 33 32 31 31 30 29 30 33 35 35 35 34 32 30 30 30 30 29 28 27 27 27 28
0 4 4 2 1 1 1 4 4 6 6 3 4 3 2 3 5 2 4 2 2 3 5 2 4 3 5 6 4 4 8 7 7 8 11 18 24 24 23 21 21 21 20 19 16 15 14 14 14 13 9 5 4 7 13 19 25 31 34 34 33 33 34 35 34 32 31 29 28 30 33 35 36 37 38 37 33 31 30 30 30 30 31 31 30 29
1 1 1 3 1 1 4 4 3 4 4 4 5 2 2 2 2 1 4 1 2 2 5 3 4 2 5 5 3 5 8 6 6 7 8 15 22 23 23 21 21 21 21 20 17 15 15 14 15 12 7 5 7 12 18 24 30 33 34 33 34 34 35 34 34 33 31 29 29 31 34 36 37 39 39 39 37 35 33 33 33 33 33 34 33 31
0 1 3 5 3 3 5 3 2 3 2 4 3 2 2 0 2 3 4 2 2 2 4 5 3 2 4 4 4 4 5 4 4 6 6 13 21 22 22 21 20 20 22 21 18 17 17 15 14 9 5 7 11 17 23 28 31 32 32 33 35 36 36 36 35 34 33 32 32 35 37 38 39 40 40 39 39 37 36 36 36 36 35 35 35 34
1 1 0 3 2 4 3 1 3 4 1 1 2 3 4 4 3 3 2 3 4 2 5 6 3 4 1 3 3 4 1 3 4 5 6 12 19 21 21 20 20 21 21 20 19 19 17 14 11 6 6 11 16 21 26 28 29 29 31 34 37 38 38 38 37 36 35 35 36 38 39 39 40 41 40 40 39 38 37 38 39 39 38 37 36 36
3 3 1 1 0 1 2 2 3 3 2 2 3 3 4 4 3 4 4 4 3 3 6 4 0 4 1 2 2 4 2 5 6 6 6 9 16 20 21 20 20 20 20 20 21 19 14 12 10 8 11 17 20 24 26 26 28 30 33 37 41 41 39 37 37 36 36 36 37 38 40 41 42 41 40 40 40 39 38 39 41 41 40 38 38 38
4 2 2 2 1 1 2 2 4 5 5 4 3 4 4 4 3 2 4 2 1 4 4 1 3 2 2 1 1 2 4 6 7 9 11 13 18 20 19 19 19 19 20 22 20 15 12 12 13 14 17 20 22 25 27 28 30 33 36 41 42 41 38 36 36 37 37 38 37 37 38 41 42 42 41 40 41 41 41 41 42 42 42 41 40 39
4 4 4 2 1 2 3 1 2 2 2 2 1 3 3 1 2 3 4 2 2 4 4 2 2 1 1 2 3 3 5 7 12 16 19 20 19 18 18 19 19 19 21 20 15 12 12 13 16 18 19 21 24 27 28 30 32 35 39 42 42 39 38 38 39 39 38 39 38 38 38 39 41 41 40 40 41 42 43 42 43 44 43 42 41 40
2 4 2 1 1 2 2 3 3 2 1 2 3 3 3 3 2 3 3 2 3 3 4 2 1 2 2 4 5 5 10 15 21 22 21 20 17 17 19 20 20 21 19 16 13 12 14 16 18 19 20 23 27 28 29 31 33 36 40 43 42 41 42 43 43 42 40 40 40 40 39 37 37 39 39 40 41 41 41 43 45 45 43 41 41 41
1 4 3 0 1 0 1 2 2 2 1 2 1 3 1 3 4 2 3 4 3 2 3 2 1 1 2 4 2 7 13 17 21 21 19 18 17 19 20 20 21 21 17 14 14 15 17 19 19 19 22 27 29 29 30 32 34 39 43 45 44 45 45 45 44 44 42 41 41 41 38 35 36 38 39 40 41 40 41 44 44 42 40 40 41 41
1 4 3 1 2 1 2 2 1 1 1 1 2 0 3 4 5 1 3 2 2 2 3 2 2 1 2 4 3 8 10 10 13 15 17 17 17 17 17 18 20 19 16 15 17 19 21 21 21 23 27 31 32 31 31 33 38 43 46 46 46 47 46 45 45 44 42 39 40 40 38 36 36 38 39 40 40 39 39 40 40 39 40 40 41 43
0 5 4 1 2 3 1 2 2 1 1 2 1 4 2 1 3 3 1 3 4 1 3 2 3 3 3 3 3 7 7 7 7 9 13 15 16 15 14 16 19 19 19 20 23 23 22 22 24 28 32 33 30 29 32 37 43 45 45 45 47 48 47 46 46 42 39 39 40 41 39 38 38 39 39 39 38 38 38 40 41 43 43 43 44 46
0 3 5 1 1 4 1 1 3 4 1 2 3 2 1 1 1 1 1 1 2 1 3 4 2 0 1 2 2 4 5 6 7 7 9 11 14 15 15 18 20 22 24 27 25 22 22 24 27 31 33 30 27 30 36 43 47 47 46 47 47 47 47 45 42 40 41 42 41 39 38 37 36 36 37 37 37 38 40 42 43 43 43 43 44 45
1 1 5 3 2 2 2 2 1 3 3 2 2 3 1 2 3 1 1 2 1 2 3 4 4 4 2 2 3 3 5 6 6 5 5 9 13 14 16 20 23 26 30 27 21 21 25 27 30 32 31 28 29 35 42 47 49 47 47 47 47 47 45 41 39 41 44 43 38 36 35 35 35 36 37 37 36 37 37 38 38 38 39 40 41 42
1 1 4 5 2 2 2 1 4 4 1 1 1 2 1 1 1 0 1 2 3 2 2 2 2 1 1 1 5 6 4 3 4 4 5 9 13 16 21 25 28 31 30 23 21 25 27 30 32 31 28 29 35 41 46 49 47 45 46 46 46 44 42 41 43 44 42 38 36 37 38 39 39 39 38 37 36 36 35 35 35 35 36 36 35 33
1 1 3 4 4 3 4 4 4 5 4 4 3 2 3 2 1 1 4 2 2 2 3 2 2 2 2 3 5 5 4 3 6 7 8 12 16 20 25 28 31 30 24 20 23 26 29 33 33 29 29 34 40 45 49 48 45 45 46 45 45 44 43 43 44 41 38 38 41 43 42 41 40 39 36 35 33 33 33 33 33 33 33 33 30 28
0 0 2 4 5 4 6 5 2 2 3 4 2 2 3 3 3 3 4 3 1 1 2 2 1 3 3 4 6 6 5 6 10 12 12 15 19 22 27 30 28 23 20 22 24 26 31 34 31 29 33 39 44 47 48 46 45 46 45 44 45 46 45 43 40 37 38 44 47 45 42 40 39 37 34 32 30 31 33 34 35 36 36 36 36 36
2 0 1 4 5 4 5 4 2 0 1 1 2 1 1 1 3 5 4 3 1 2 1 1 2 3 5 7 9 8 7 9 13 16 18 20 22 27 30 29 25 23 23 23 24 29 33 31 29 33 38 43 46 48 47 46 46 45 45 46 47 47 44 39 36 39 45 49 47 43 40 39 39 36 33 32 32 34 36 36 38 40 40 40 41 42
2 1 1 3 5 6 6 5 4 4 2 1 2 2 2 2 4 3 1 3 1 3 3 2 3 3 4 5 7 9 11 13 17 22 24 24 26 29 28 25 24 25 24 23 26 32 31 29 32 37 40 44 47 48 47 46 46 46 47 48 47 44 39 36 39 47 50 47 42 39 39 38 36 32 30 32 36 39 41 42 42 42 42 42 41 38
1 2 0 0 2 4 4 3 3 3 3 2 2 3 3 3 3 1 1 3 1 3 0 2 4 4 3 7 11 13 14 15 20 25 26 25 26 27 25 24 25 25 23 24 29 31 29 32 36 39 42 47 48 47 47 46 46 48 49 47 42 37 36 41 47 49 45 40 38 37 36 35 32 30 33 39 44 47 50 50 50 49 48 47 43 39
0 2 2 4 5 5 5 6 5 1 3 6 6 5 2 2 3 4 3 2 3 2 2 2 3 7 8 8 10 11 11 10 15 22 24 26 27 25 24 24 25 24 23 25 28 30 32 36 38 41 46 48 47 46 45 44 45 48 48 43 36 34 41 48 48 43 39 36 34 34 35 37 38 39 43 48 50 51 52 51 51 51 50 47 45 45
2 3 4 4 7 7 6 8 8 4 4 7 6 2 1 2 4 6 2 3 3 1 3 2 3 7 7 7 8 9 9 8 13 19 23 27 28 24 24 24 24 24 25 26 29 31 34 37 40 45 47 45 45 45 42 42 45 46 42 37 36 43 48 47 43 38 35 33 35 41 44 46 46 46 47 47 48 48 48 47 46 43 41 39 39 42
3 3 4 2 6 9 7 9 10 6 4 4 2 3 5 3 4 5 2 3 4 1 5 4 5 6 4 6 7 8 11 12 16 20 25 30 26 22 24 26 25 26 28 29 31 33 34 38 42 45 44 44 45 44 41 44 47 43 38 38 43 49 48 43 38 34 33 39 47 50 50 49 49 49 49 48 47 46 46 46 43 39 37 37 38 40
3 3 4 1 5 10 9 9 7 4 2 3 4 2 4 4 4 4 1 0 2 3 6 5 7 4 2 6 8 11 15 17 20 24 29 30 25 22 26 27 25 26 29 31 33 34 36 40 43 43 43 44 44 42 42 45 44 40 40 45 48 49 45 39 33 33 41 49 52 50 49 49 49 50 49 48 47 47 46 46 44 41 40 40 41 41
2 2 3 2 2 8 8 6 5 2 2 4 6 5 4 4 4 4 2 2 4 4 4 6 6 4 3 9 12 14 18 21 23 26 28 27 23 22 25 27 27 28 30 32 33 35 39 42 43 42 43 44 42 40 41 43 41 41 45 48 49 47 42 33 32 40 49 52 50 49 50 50 49 50 49 48 48 48 48 47 45 44 43 42 41 38
1 2 4 5 2 6 5 5 8 4 5 6 6 7 6 5 4 3 2 3 2 4 5 6 5 4 5 11 12 13 18 20 20 24 26 23 21 24 30 34 33 30 31 33 34 37 41 42 41 42 43 43 41 40 41 43 43 45 48 48 48 45 37 32 38 48 52 50 50 51 50 50 51 51 50 49 49 49 49 48 46 45 45 43 40 36
2 1 2 2 1 5 4 6 8 3 5 3 4 5 3 3 4 4 4 3 2 2 3 4 3 4 7 11 11 10 13 14 16 22 23 21 25 31 35 35 31 28 30 33 35 38 40 40 40 41 42 42 41 40 41 43 44 46 47 47 47 42 35 38 46 51 51 50 50 50 51 51 52 51 51 50 50 50 49 48 47 46 44 42 39 35
1 1 2 1 1 4 6 7 6 2 1 2 3 4 0 4 7 7 6 3 3 3 2 2 4 5 7 8 7 9 12 13 19 23 19 19 29 36 33 28 24 26 32 36 37 37 38 40 41 41 40 40 40 40 41 42 44 45 45 45 44 38 36 43 49 51 50 50 50 51 52 52 52 51 51 50 50 50 49 47 46 44 41 39 37 35
1 1 2 2 1 3 4 6 5 2 2 4 2 6 3 4 5 6 4 1 4 4 3 5 6 6 8 8 9 13 16 18 24 22 14 19 30 30 26 22 23 29 35 37 37 37 38 40 41 41 40 40 39 40 41 43 45 46 45 44 41 37 38 45 49 50 50 50 51 51 52 52 52 51 50 50 50 49 47 45 44 41 38 36 35 35
2 1 1 1 1 1 3 4 2 2 1 2 1 6 6 4 5 7 3 2 3 4 4 6 8 8 11 13 15 19 22 25 25 16 11 25 31 23 19 22 25 32 36 34 34 36 38 38 38 38 39 39 39 40 41 43 45 46 45 43 40 38 41 46 49 50 50 51 51 51 51 51 51 50 50 50 49 48 45 43 42 39 37 36 35 34
4 2 1 1 0 1 1 3 2 1 1 3 3 5 6 4 4 6 4 1 2 6 6 7 8 10 13 15 19 25 29 28 17 5 11 28 27 17 20 26 30 35 35 30 31 34 36 35 34 34 36 37 38 38 40 43 45 45 44 43 41 40 43 47 49 49 50 51 51 51 51 49 49 49 49 48 47 46 44 42 40 38 37 37 37 35
2 2 2 1 0 2 2 3 3 2 3 1 3 7 8 8 9 8 4 3 4 12 12 9 9 12 14 16 22 28 29 21 6 3 17 28 22 20 27 31 33 35 32 29 32 34 35 35 35 35 36 38 38 37 39 43 44 44 43 43 41 42 46 48 48 49 50 50 51 51 50 48 47 47 46 46 45 43 42 40 40 38 37 37 38 37
2 1 4 3 1 3 4 2 2 3 4 0 5 9 12 16 16 9 1 2 7 15 17 15 14 13 14 16 21 22 18 10 5 12 26 27 23 28 32 33 36 35 30 30 33 34 35 37 37 37 38 39 40 39 41 43 43 43 43 42 42 44 47 48 48 49 50 50 51 50 49 47 45 43 43 43 42 41 41 40 40 39 37 37 37 36
5 3 4 4 1 2 3 1 2 2 2 2 7 10 14 18 13 4 1 4 8 17 20 19 16 13 13 15 16 14 8 6 12 24 31 29 28 32 33 34 38 35 31 33 35 35 37 39 38 39 40 41 41 41 42 43 43 43 42 42 43 45 47 48 48 48 49 50 50 50 47 45 42 40 40 41 41 41 40 39 40 40 38 37 36 34
4 2 2 3 1 3 2 1 3 2 1 5 11 12 16 15 5 2 3 7 12 17 17 18 16 13 14 16 14 11 11 15 22 28 30 30 32 34 33 35 37 33 31 35 36 37 40 40 38 38 39 40 42 42 42 43 43 43 43 43 44 46 47 47 47 48 49 49 49 48 46 43 40 39 40 40 42 42 41 39 39 38 38 38 36 33
2 3 2 2 2 4 1 1 4 2 1 10 15 11 12 10 1 2 8 11 15 16 16 19 18 15 16 17 14 15 21 25 25 25 27 30 32 32 34 37 38 34 33 34 36 39 41 40 39 39 39 40 41 41 41 42 42 43 43 44 45 46 46 46 47 48 49 48 48 47 45 42 39 39 40 42 43 44 42 39 38 38 38 38 35 33
1 0 2 2 1 2 2 2 3 3 2 14 14 6 6 6 2 8 12 12 13 15 19 21 17 14 18 21 19 22 27 27 23 24 28 30 30 31 35 38 38 35 34 35 37 39 40 39 39 39 40 41 41 41 41 42 42 43 44 44 45 46 46 47 47 48 48 48 47 46 43 41 40 39 41 43 44 44 43 41 40 39 38 35 34 34
1 2 1 2 1 2 1 2 0 2 4 13 11 3 4 5 7 12 14 13 15 18 20 19 14 15 22 25 25 27 27 23 22 26 30 31 31 33 36 38 37 35 33 35 37 39 39 38 39 40 40 41 41 41 41 41 42 43 44 45 46 46 47 47 47 48 48 47 46 45 43 41 40 40 41 43 44 44 43 42 41 40 37 34 33 33
0 1 2 2 1 1 4 5 1 3 8 13 11 7 7 11 16 19 18 18 18 19 20 19 18 21 25 26 27 27 24 22 24 28 31 32 32 34 36 37 36 34 33 35 37 37 37 37 39 40 41 40 41 40 40 39 41 43 44 45 45 46 47 48 48 48 47 47 46 45 42 40 41 41 42 43 43 44 43 42 42 41 37 34 33 33
2 5 2 1 2 4 4 3 2 8 15 18 14 12 14 19 23 23 21 19 18 18 21 22 22 24 26 27 27 25 22 23 26 29 31 31 31 33 35 36 34 33 34 36 37 37 38 38 39 40 41 41 41 40 39 39 39 41 43 44 45 45 46 46 47 47 47 46 45 44 42 41 42 42 43 43 42 43 43 42 42 40 37 34 33 32
4 9 6 1 1 4 3 1 6 13 20 20 15 16 20 22 21 20 18 17 17 18 19 21 23 24 25 25 24 21 21 24 28 31 31 29 30 33 35 34 33 33 33 35 36 37 38 39 40 41 42 42 41 40 40 39 39 40 42 43 44 45 45 45 46 46 46 45 45 43 41 41 43 43 43 43 43 43 43 42 41 39 36 34 33 32
3 7 5 0 1 3 5 4 12 19 18 12 13 19 23 21 18 17 16 17 20 19 18 20 23 24 24 24 22 20 22 25 29 30 29 28 30 34 34 33 33 33 33 34 35 36 37 38 39 40 41 41 41 40 40 40 39 40 41 43 44 44 45 45 45 45 45 45 44 42 41 41 42 43 44 44 43 43 43 42 41 38 34 33 32 31
4 5 3 2 3 4 5 7 16 15 8 5 14 22 24 20 18 17 16 18 22 22 20 22 24 23 24 24 21 21 24 27 29 29 28 28 31 33 32 32 32 32 33 34 34 35 36 37 38 39 40 40 40 40 40 39 40 40 41 43 44 44 45 45 45 44 44 44 42 41 40 41 42 42 43 44 44 44 42 40 39 36 33 32 28 25
3 2 2 3 3 3 3 8 13 9 5 9 19 25 22 18 17 17 18 20 23 23 22 23 24 24 25 23 20 22 24 27 28 28 27 29 31 31 31 31 32 32 33 34 34 35 35 36 37 39 39 39 39 39 39 39 40 40 41 42 43 43 44 45 45 45 44 43 41 40 40 41 41 42 43 43 43 44 44 40 35 31 31 30 23 17
3 2 3 3 3 4 7 12 13 11 10 15 23 26 21 16 16 18 21 23 24 23 23 23 25 26 25 21 19 21 24 26 28 27 27 28 29 29 29 31 32 32 33 33 35 36 36 37 37 37 38 38 38 38 39 39 39 40 41 41 42 42 43 43 44 45 44 42 40 39 39 40 41 42 43 42 42 43 44 43 38 30 26 24 17 13
Wind_Direction
165 313 272 242 246 232 216 177 171 173 146 158 180 199 241 252 271 267 262 252 164 152 254 242 244 269 277 281 286 281 267 222 191 176 153 143 138 141 136 125 118 107 95 82 71 66 57 43 27 20 19 17 19 21 19 18 15 11 6 2 359 355 352 349 346 343 342 340 336 330 327 325 324 323 321 322 324 323 323 326 326 326 326 324 324 323
112 278 257 234 228 207 167 116 114 116 109 113 166 247 277 253 260 271 248 247 195 136 269 269 280 283 277 282 293 281 262 196 166 156 147 144 138 132 125 119 115 106 97 89 77 69 57 40 25 17 14 10 7 10 13 14 11 7 4 0 357 353 351 348 344 341 341 341 338 334 332 329 326 326 324 325 328 328 328 331 331 330 330 327 327 326
355 259 245 223 176 119 64 62 85 101 104 101 146 261 286 261 272 310 3 282 242 185 276 301 309 290 282 285 302 292 244 187 163 153 147 142 132 124 121 116 110 101 93 85 73 65 56 41 30 19 12 4 358 2 3 1 1 1 360 357 355 353 349 345 340 338 338 341 341 337 335 332 329 329 328 328 333 333 330 331 332 332 331 328 327 327
300 253 237 207 113 92 32 40 78 68 40 225 177 186 259 274 303 294 310 304 262 233 268 302 305 285 289 299 328 329 139 137 142 142 140 137 129 122 119 113 102 92 82 75 64 54 50 40 32 23 13 6 357 352 343 352 359 357 354 352 352 352 348 343 337 336 336 338 341 338 335 333 329 329 329 329 333 334 331 330 330 330 329 326 325 325
246 244 221 46 72 102 181 273 101 111 309 278 207 208 244 271 266 234 280 315 310 312 311 325 318 291 312 6 13 24 95 106 113 120 120 123 124 120 112 101 91 87 76 66 57 48 45 38 30 22 15 7 344 337 345 356 354 346 347 349 349 349 348 344 338 338 337 336 338 337 335 332 327 327 327 327 329 330 330 330 330 330 327 324 323 322
258 251 113 75 14 87 167 235 211 170 257 307 240 219 217 198 304 303 336 357 1 337 342 25 357 293 324 39 51 29 75 93 102 109 111 116 118 114 104 93 87 83 67 56 54 47 42 35 30 20 14 2 336 348 352 345 338 338 346 349 348 347 348 347 341 338 336 333 333 333 333 332 328 325 324 324 325 325 326 328 329 329 328 325 322 320
274 351 62 109 164 236 176 256 245 166 142 303 251 186 153 97 13 347 11 19 5 281 277 57 70 265 312 343 242 155 89 91 100 105 111 114 113 107 100 93 86 76 60 55 52 45 38 32 27 14 5 358 345 349 335 329 334 342 347 348 347 346 346 345 342 338 334 329 326 327 328 328 327 325 322 321 319 318 321 322 324 326 327 326 323 320
103 24 22 64 119 164 220 271 255 149 128 261 231 154 75 16 327 337 69 70 227 271 301 251 171 229 299 302 269 130 106 102 99 91 96 107 109 105 99 92 81 68 57 54 50 43 35 27 23 11 1 359 344 333 331 337 345 347 348 346 346 345 343 343 341 337 332 326 321 321 323 323 324 323 323 322 318 315 315 316 318 321 323 323 320 319
130 80 235 177 132 207 215 247 259 149 140 241 225 201 295 283 256 115 104 216 250 9 323 286 157 180 271 288 349 80 107 110 96 84 90 105 107 103 98 90 76 62 51 48 47 42 31 22 19 11 0 355 343 340 343 347 349 348 348 347 346 344 342 340 339 335 329 323 318 317 319 319 320 320 320 321 318 315 315 314 314 317 318 318 316 316
278 195 214 159 151 226 229 262 340 107 186 240 217 258 321 67 131 102 128 185 34 51 277 269 180 148 283 301 360 38 88 103 97 91 95 103 104 101 96 87 69 51 42 43 46 39 27 19 18 12 356 352 349 349 349 349 351 351 351 350 346 343 341 337 336 333 328 324 320 317 317 316 317 318 317 316 314 312 312 311 311 312 312 312 312 312
291 75 95 110 162 214 197 310 39 86 189 265 45 353 358 32 71 78 113 102 56 319 257 259 208 126 334 322 5 346 349 141 123 89 78 91 99 97 89 75 53 41 40 43 39 29 22 22 25 22 2 357 354 353 354 355 356 354 351 348 342 339 337 335 333 332 328 325 322 319 317 315 314 315 314 312 310 308 307 306 308 309 308 308 309 310
344 36 5 45 300 207 110 22 5 44 32 51 59 25 4 356 31 35 3 51 76 270 262 268 182 114 152 298 11 347 11 130 128 107 97 95 95 91 78 57 42 41 42 35 27 22 25 30 29 18 3 358 355 355 357 357 354 350 346 342 338 336 335 333 332 330 327 325 323 321 318 315 313 312 310 309 309 307 304 304 305 306 306 306 307 307
329 302 289 349 17 54 80 4 335 359 26 50 61 50 32 349 359 4 329 356 177 247 250 161 71 105 208 207 164 61 73 116 125 116 110 95 86 80 64 46 43 44 34 24 23 28 31 26 16 6 0 356 354 354 353 352 350 345 342 340 338 337 334 332 330 328 325 322 320 319 318 315 312 310 309 309 309 307 304 303 304 305 306 306 305 303
329 308 327 1 347 26 84 118 316 333 23 56 104 89 85 56 1 303 290 311 273 263 248 159 86 279 232 111 184 154 108 105 93 91 92 85 77 67 53 47 45 35 24 21 24 27 19 11 4 359 357 354 350 351 351 349 346 341 340 340 339 336 331 328 326 325 324 321 317 315 314 314 312 308 308 310 310 308 305 303 304 304 305 304 302 300
320 300 318 42 312 1 59 172 172 174 207 230 194 141 133 144 152 241 241 244 268 281 286 289 321 251 154 145 185 132 89 82 79 78 78 73 64 57 52 47 37 25 22 22 18 13 5 2 0 358 356 352 350 351 349 346 342 339 339 339 337 333 328 325 323 321 320 318 316 314 313 313 313 309 308 310 311 309 306 304 304 303 303 303 301 298
210 261 260 313 290 44 136 227 148 119 281 266 149 98 138 185 160 192 220 218 245 318 314 290 255 305 107 133 144 72 71 71 69 65 61 57 53 53 47 35 27 22 19 14 7 3 1 2 3 359 355 352 351 349 346 343 341 339 338 338 336 333 329 327 324 322 320 317 317 316 315 314 315 313 310 311 311 309 307 304 302 302 303 303 301 299
18 277 271 17 311 197 160 273 318 75 290 349 69 203 230 190 140 136 269 283 31 23 283 232 131 30 84 116 42 42 57 55 55 54 50 48 47 44 34 25 20 17 12 4 359 359 1 3 2 358 354 352 351 348 344 342 340 338 337 337 335 333 331 329 326 324 324 323 321 320 318 316 316 315 312 312 311 310 308 304 302 304 304 303 302 301
159 278 282 55 289 263 203 280 315 18 97 125 192 252 260 107 101 106 289 345 17 338 264 242 161 175 162 139 24 28 43 33 33 42 42 43 38 27 21 18 13 10 6 356 354 357 1 1 358 354 352 353 352 347 343 340 338 338 337 335 334 333 331 328 327 328 327 324 322 320 320 318 316 315 313 312 312 311 309 306 305 306 306 304 302 301
103 289 296 318 242 280 318 355 325 339 11 155 210 259 52 75 322 10 101 345 339 275 281 296 281 138 116 133 40 25 35 31 22 25 33 30 19 14 14 9 4 3 359 353 355 2 3 0 357 354 352 352 349 342 339 338 338 338 336 334 334 332 330 329 329 327 322 320 321 321 321 321 318 316 314 313 312 311 309 308 307 307 306 304 302 300
4 275 287 277 222 289 352 43 293 312 340 12 340 334 33 161 189 189 180 174 178 245 265 306 343 33 45 180 138 86 51 49 34 20 18 11 11 14 9 1 358 357 355 355 1 3 1 358 355 353 351 347 342 338 338 338 338 337 334 333 332 331 331 331 326 322 320 323 325 324 321 318 315 313 311 310 309 309 309 309 310 309 308 306 304 302
344 184 265 286 311 327 328 236 192 187 181 75 54 323 309 298 195 207 249 162 143 192 226 294 326 71 62 116 119 101 82 88 61 26 12 10 13 10 3 359 355 353 354 358 1 359 358 356 353 352 348 341 338 338 338 338 337 334 332 332 332 332 332 328 323 323 326 327 324 320 316 313 311 310 308 308 308 308 309 310 310 310 309 309 305 300
321 210 254 294 316 303 272 243 188 169 175 159 154 197 187 148 104 296 293 295 104 160 187 192 264 213 125 111 120 116 124 102 49 32 19 10 8 3 359 357 354 354 357 358 357 357 356 353 352 349 344 340 339 338 337 337 335 333 332 332 333 333 331 328 327 330 329 323 319 319 319 318 317 317 317 317 315 314 313 311 310 309 307 305 299 293
65 160 274 283 272 262 274 273 221 187 195 179 185 199 166 142 129 165 257 273 346 290 213 147 223 219 164 128 118 110 104 67 39 30 18 6 3 0 357 356 356 356 354 352 352 354 352 350 350 346 341 339 338 337 336 335 333 333 333 334 334 332 331 331 333 331 324 321 322 325 326 325 325 327 328 325 321 319 317 313 312 313 311 309 305 302
6 77 301 290 286 303 311 305 299 8 106 153 280 325 109 167 136 156 198 182 156 273 264 104 268 221 166 137 119 103 76 52 36 23 12 3 0 359 356 355 355 352 348 350 352 352 351 350 348 343 339 338 337 336 336 335 335 335 335 335 333 332 334 337 335 328 324 325 328 330 330 329 330 332 328 319 315 317 316 313 313 315 315 314 311 310
339 236 31 331 323 338 345 345 339 339 22 38 292 356 40 61 77 90 72 69 78 243 191 170 249 223 161 112 71 47 31 27 20 11 7 3 358 355 353 352 351 349 350 353 352 350 350 349 344 341 338 338 337 337 337 336 336 335 334 333 335 337 340 338 331 326 327 330 333 333 333 333 333 332 325 316 312 311 311 310 310 309 309 309 308 310
288 231 185 21 291 304 305 300 293 296 319 316 310 350 14 72 87 94 45 70 152 266 247 171 240 279 351 27 24 17 13 9 5 2 0 359 354 349 349 351 352 352 352 350 349 349 347 344 341 340 339 338 338 337 336 335 333 332 332 335 341 343 338 330 327 329 333 337 337 336 336 335 329 321 315 312 311 309 307 306 305 303 301 301 299 299
56 281 237 192 212 240 247 256 263 290 314 296 299 321 342 102 97 100 95 134 186 263 296 212 261 314 338 15 19 9 8 2 355 355 355 352 349 349 354 356 354 353 349 346 347 345 342 341 340 340 339 337 336 335 335 333 332 332 335 341 345 338 330 328 330 335 341 343 339 335 331 324 316 311 310 309 309 309 308 307 305 303 300 297 293 292
69 311 267 222 238 251 250 267 283 301 282 268 277 296 137 110 84 97 127 218 171 133 274 265 357 329 328 13 16 358 359 358 353 356 354 349 347 353 358 355 351 349 346 344 344 342 341 342 340 338 337 335 334 335 335 333 333 337 342 342 336 331 330 333 338 343 344 338 330 326 324 320 318 318 317 315 315 314 313 313 312 311 310 307 301 296
112 263 256 234 272 275 269 271 278 280 265 265 266 164 155 145 117 119 192 211 133 165 257 287 334 317 327 13 7 355 360 359 356 356 352 345 346 355 357 351 347 347 344 343 342 341 342 341 338 337 336 335 336 338 336 334 337 342 343 336 332 332 335 340 344 344 337 330 327 326 325 325 326 326 325 323 322 321 319 320 320 321 320 314 305 298
115 256 257 232 281 289 285 279 284 276 262 18 36 108 144 144 132 124 162 151 70 268 261 305 321 298 46 22 354 356 3 0 357 354 348 345 348 353 352 349 347 345 343 342 341 340 340 339 337 337 336 337 339 339 336 336 340 341 337 334 334 336 340 344 343 336 330 329 329 329 328 328 328 328 328 328 327 326 325 325 324 322 318 311 305 303
103 261 300 51 309 296 295 307 337 337 156 74 38 26 52 71 71 64 36 4 359 306 300 343 327 287 25 9 352 358 4 1 357 351 344 344 351 352 349 346 344 343 341 340 339 339 338 337 337 337 336 338 339 337 336 338 339 337 336 337 337 338 343 344 333 328 330 331 332 332 331 331 330 331 332 331 331 330 328 326 325 322 319 317 314 312
104 272 333 40 10 288 291 335 344 6 96 81 34 11 23 43 36 9 334 343 342 302 320 349 334 293 336 349 349 2 7 1 354 344 338 344 354 352 346 343 340 339 339 339 339 339 337 337 337 337 336 337 338 337 337 338 338 337 339 339 337 340 343 335 327 330 333 334 335 335 335 334 334 334 334 333 332 330 328 328 327 326 324 323 321 318
130 243 315 38 337 276 286 324 326 12 93 56 351 349 9 56 36 351 330 359 13 348 347 342 306 295 326 342 349 359 2 356 347 340 338 346 352 346 341 338 335 336 339 340 340 338 336 336 336 335 335 336 337 337 337 337 338 339 341 339 338 341 338 329 330 334 336 336 337 337 337 337 336 335 334 334 332 330 330 330 329 328 327 325 325 322
113 121 247 217 205 271 293 326 342 41 128 255 331 3 357 110 56 360 327 2 46 60 58 309 294 312 339 353 351 338 339 343 340 335 335 348 349 340 334 334 336 339 341 340 338 337 336 335 334 334 335 337 337 336 336 337 339 340 340 339 339 340 333 329 333 336 337 338 339 339 339 338 336 334 334 333 332 332 332 332 331 330 329 328 327 325
21 70 253 233 188 256 309 7 22 360 226 198 90 29 32 101 57 352 305 96 65 46 29 346 329 335 346 344 334 329 331 335 333 327 330 348 345 336 332 340 345 344 342 339 336 335 334 334 334 335 337 337 337 336 336 338 340 340 340 340 341 339 332 331 335 338 338 339 339 339 339 338 336 335 334 334 334 333 333 333 332 332 331 330 328 327
152 186 267 249 218 285 3 17 357 238 209 178 45 20 22 37 25 356 333 106 53 13 2 347 333 338 344 337 334 335 332 331 330 323 335 348 345 338 341 348 345 342 341 338 334 332 333 335 336 336 336 337 336 337 337 338 340 340 339 341 342 339 333 334 338 340 340 339 339 339 339 338 336 335 334 334 334 334 335 335 334 334 333 330 329 328
146 138 19 346 255 85 20 308 285 228 333 10 8 350 352 356 353 341 314 218 46 7 357 347 334 341 348 342 340 339 334 332 331 317 343 348 347 346 347 342 337 338 339 335 331 332 334 336 337 336 336 337 338 338 337 337 339 339 339 342 343 339 336 338 340 341 340 340 340 340 340 340 337 335 335 335 335 335 336 336 335 336 335 332 329 328
157 163 117 94 313 71 53 337 355 324 263 335 340 314 330 335 317 310 278 225 7 5 5 7 354 352 355 349 347 346 339 332 328 353 347 347 349 347 342 336 335 338 337 332 331 334 337 339 340 339 339 341 342 341 337 336 338 340 341 343 343 340 339 341 342 342 341 341 341 340 341 340 339 337 336 336 337 338 338 338 338 337 337 333 330 328
3 132 108 90 356 41 52 4 318 250 230 302 315 308 333 330 312 307 255 238 357 8 13 16 8 2 2 353 351 354 348 331 318 336 342 346 348 344 338 334 336 339 335 331 334 338 340 342 342 342 343 344 344 342 339 338 340 341 342 343 342 341 341 341 342 342 341 341 341 341 341 341 340 340 339 339 340 341 340 340 339 338 338 335 331 329
5 12 62 60 9 6 26 311 266 233 202 341 311 307 329 326 316 338 322 292 5 18 15 13 6 1 4 359 357 4 359 320 315 323 331 338 339 337 335 335 338 339 334 333 337 341 342 343 344 344 345 346 346 343 342 340 341 343 344 343 342 342 341 341 341 342 342 342 342 341 341 342 342 342 343 342 342 343 342 341 340 339 338 335 332 328
6 352 35 68 43 346 346 250 290 257 193 332 319 321 339 339 339 89 309 317 4 13 9 7 360 353 1 1 357 349 327 317 315 315 322 330 331 331 332 334 338 339 335 335 339 342 343 344 344 345 346 347 346 345 343 342 342 343 344 344 343 342 341 342 342 342 343 343 343 342 342 344 345 346 347 346 345 343 342 341 340 339 338 336 332 326
8 332 347 56 17 333 303 229 304 265 101 354 336 335 2 6 336 325 333 337 353 356 355 357 352 347 353 351 342 329 323 323 321 318 324 330 329 329 331 334 339 340 337 338 342 343 343 343 344 345 347 348 347 346 345 343 343 344 345 345 344 342 342 343 343 343 343 344 343 343 343 344 347 349 349 348 347 343 340 340 341 340 338 335 330 325
106 358 326 320 308 341 354 358 329 244 338 0 351 344 30 37 329 335 343 338 342 348 350 351 348 341 341 339 334 329 327 326 325 324 328 331 329 328 331 335 339 339 338 341 343 343 343 343 344 346 348 348 348 347 347 345 344 345 346 344 343 342 342 344 344 343 344 344 343 343 343 345 348 351 351 349 346 343 340 341 341 338 335 333 329 328
113 124 262 277 174 92 26 323 313 213 334 3 9 14 35 24 354 351 351 342 343 348 348 347 342 335 337 337 334 330 328 327 327 328 332 333 329 329 332 336 339 339 340 342 342 343 344 343 344 346 348 350 350 348 348 348 345 345 345 344 343 343 343 344 344 344 344 345 344 344 344 346 350 353 352 349 346 343 343 343 341 337 334 334 334 333
328 104 178 211 225 200 222 230 229 23 360 6 21 33 23 6 354 349 346 342 342 343 344 345 339 335 336 335 332 330 329 328 327 329 332 331 327 328 332 336 340 342 342 342 342 343 344 344 345 347 348 350 350 348 349 350 348 346 345 344 343 344 344 344 344 344 345 345 345 345 346 348 352 354 352 348 346 345 345 343 340 338 338 339 339 336
27 16 24 181 308 312 275 245 17 6 352 354 7 15 3 353 346 340 337 338 340 340 340 341 337 333 332 333 333 331 327 324 325 328 330 328 325 328 333 337 341 343 343 342 343 344 344 345 347 347 347 349 350 348 350 352 352 348 345 344 344 344 345 345 344 344 345 345 345 346 348 350 353 353 350 348 348 348 347 344 341 341 342 342 339 336
33 24 18 58 360 336 314 56 34 358 341 346 4 7 356 348 342 337 335 337 341 341 339 338 335 331 330 333 334 328 321 322 325 328 330 328 326 329 334 338 342 344 343 342 343 344 345 346 347 347 347 347 348 348 350 353 353 350 346 345 345 345 345 346 345 344 346 346 346 347 350 352 353 351 349 349 349 349 348 347 346 345 344 342 340 337
343 7 7 22 342 298 261 307 354 342 328 339 6 0 351 344 336 335 337 338 343 346 341 336 335 332 333 336 332 321 317 320 325 329 330 326 326 331 336 340 342 343 343 343 344 345 346 347 347 347 346 346 346 348 350 353 353 351 349 348 347 347 347 347 346 346 347 348 347 348 351 354 353 350 349 350 350 348 348 348 349 347 344 344 341 335
313 334 336 309 308 285 266 323 348 342 320 334 351 347 344 337 329 332 338 339 344 347 338 332 332 331 333 335 327 317 317 319 325 330 327 324 328 334 338 340 342 343 343 343 344 345 346 346 346 346 345 345 345 347 350 353 353 352 350 349 349 349 349 348 347 347 348 348 348 349 352 354 353 351 351 351 350 349 349 349 349 346 343 345 342 333
335 316 343 350 324 301 331 353 355 346 311 325 338 341 340 332 327 336 342 342 344 342 333 330 330 329 331 332 324 318 318 320 325 328 325 325 332 337 339 341 343 342 343 343 343 344 345 346 346 345 344 344 344 347 351 353 353 352 351 350 350 351 351 349 348 348 349 349 348 351 353 354 352 352 352 351 351 351 350 352 354 353 350 349 343 335
17 324 344 355 301 297 335 347 347 338 321 324 335 338 335 327 331 341 342 340 339 335 329 329 329 328 330 330 322 317 318 321 326 328 326 329 334 338 341 343 343 342 344 343 343 344 345 346 346 345 344 343 344 347 351 353 353 352 351 350 351 352 353 352 350 349 349 349 349 352 354 354 353 353 353 352 353 352 351 352 355 0 6 4 352 343